Weather in Chebotarikha

Russia / Irkutsk Oblast     54°23′01″N   101°14′10″E
temp.,
°C
wind,
m/s
gust,
m/s
humid.,
%
clouds,
%
prec.,
mm/h
press.,
hPa
HPBL,
m
7 march, sun
sun723:00−9se359275 0.0 102086
02:00−11se229680 0.0 101931
05:00−11sse238782 0.0 101721
08:00−10se128192 0.0 101821
11:00−6se3584100 0.0 1015147
14:00−3s2482100 0.0 1013357
17:00−1wnw1291100 0.0 1013215
20:00−5wsw228791 0.0 101621
8 march, mon
mon823:00−5sw2295100 0.0 101834
02:00−4nw3896100 0.9 1020567
05:00−9wnw31383100 0.3 1023753
08:00−10wnw31285100 0.3 1027496
11:00−8wnw3777100 0.0 1027560
14:00−6wsw137299 0.0 1026759
17:00−6se248540 0.0 1024370
20:00−10se389137 0.0 1025148
9 march, tue
tue923:00−9se5149075 0.0 1022397
02:00−9se5139288 0.0 1018415
05:00−10sse3896100 0.0 1016175
08:00−13sse229692 0.0 101720
11:00−5ssw118899 0.0 101783
14:000wsw279682 0.0 1018664
17:000sw269784 0.1 1018316
20:00−4nnw4128592 1.5 1023640
10 march, wed
wed1023:00−10nw288358 0.0 1028165
02:00−14wsw128729 0.0 103020
05:00−15ssw128633 0.0 103020
08:00−14se238867 0.0 102930
11:00−9se4108780 0.0 1026371
14:00−5se598647 0.0 1022486
17:00−4se489222 0.0 1020397
20:00−8se339519 0.0 102079
11 march, thu
thu1123:00−9se239716 0.0 102174
02:00−6se379856 0.0 1019188
05:00−8se379895 0.0 1017180
08:00−11se399695 0.1 1016188
11:00−6sse5108798 0.0 1012325
14:00−1sse488968 0.0 1010297
17:000se239557 0.0 1012138
20:00−3se229079 0.0 101621